DIRECTV 15 (40663 NORAD) Tracking and Keplerian Element Data

This shows tracking and keplerian element data for the satellite.

Feedback or suggestion? Click here.




ElementValue
Catalog40663
NameDIRECTV 15
Epoch Orbit3158
Epoch Day12.63392149
Epoch Year2024
RAAN57.8285
Inclination0.0154
Eccentricity3.56E-05
Argument of Perigee122.6165
Mean Anonmoly56.506
Mean Motion1.00274056
Decay Rate-9.3E-07
L11 40663U 15026A 24012.63392149 -.00000093 00000+0 00000+0 0 9990
L22 40663 0.0154 57.8285 0000356 122.6165 56.5060 1.00274056 31587



Live tracking and technical data element details for DIRECTV 15 (NORAD 40663). DIRECTV 15 can be tracked NOW for your location showing map with azimuth and elevation plus other details from your city location.







IsCatalogInMostPopularTable: catalog: 40663, numindb: 852
Update: records affected: 1



GetName: 40663 DIRECTV 15

Hit Count: updated at: Fri, 19 Apr 2024 13:00:54 GMT